Flag for Pakistan Weather past 2 weeks in Lahore, Pakistan

Now
97 °F

Scattered clouds.


Feels Like: 110 °F
Forecast: 89 / 108 °F
Wind: 7 mph from Southeast

Location: Lahore Airport

Current Time: Jul 22, 2014 at 7:22:44 PM

Latest Report: Jul 22, 2014 at 6:55 PM


Visibility: 3 mi

Pressure: 29.45 "Hg

Humidity: 50%

Dew point: 75 °F

Location of LahoreLocation

Historic Weather in Lahore — Graph

°F

Lahore temperature yesterday

Maximum temperature yesterday: 100 °F (at 3:55 PM)
Minimum temperature yesterday: 82 °F (at 4:55 AM)
Average temperature yesterday: 92 °F

Past Weeks' High & Low Weather Summary

 TemperatureHumidityPressure
High109 °F (Jul 12, 2:25 PM)100% (Jul 18, 12:29 PM)29.56 "Hg (Jul 18, 12:29 PM)
Low77 °F (Jul 17, 12:59 PM)12% (Jul 21, 12:59 PM)29.33 "Hg (Jul 15, 5:55 PM)
Average92 °F58%29.46 "Hg
* Reported Jul 7 5:25 PM — Jul 22 5:55 PM, Lahore, Weather by CustomWeather, © 2014

Note: Actual official high and low records may vary slightly from our data, if they occured in-between our weather recording intervals... More about our weather records

Advertising

Lahore weather history for previous 24 hours

 ConditionsComfort  
Time TempWeatherWind HumidityBarometerVisibility
5:55 PM
Jul 22
99 °FScattered clouds.7 mph47%29.45 "Hg3 mi
5:25 PM102 °FScattered clouds.7 mph42%29.45 "Hg3 mi
4:55 PM102 °FScattered clouds.7 mph42%29.45 "Hg3 mi
4:25 PM102 °FScattered clouds.6 mph42%29.45 "Hg3 mi
3:55 PM100 °FScattered clouds.6 mph45%29.45 "Hg3 mi
3:25 PM100 °FScattered clouds.8 mph45%29.45 "Hg3 mi
2:55 PM100 °FScattered clouds.6 mph45%29.47 "Hg3 mi
2:25 PM100 °FScattered clouds.6 mph47%29.47 "Hg2 mi
1:55 PM99 °FScattered clouds.5 mph50%29.47 "Hg2 mi
1:25 PM99 °FScattered clouds.5 mph50%29.47 "Hg2 mi
12:59 PM99 °FScattered clouds.8 mph50%N/A2 mi
12:29 PM97 °FScattered clouds.6 mph53%N/A2 mi
11:59 AM97 °FScattered clouds.6 mph53%N/A2 mi
11:29 AM95 °FPassing clouds.6 mph56%29.53 "Hg2 mi
10:59 AM95 °FPassing clouds.6 mph56%29.53 "Hg2 mi
10:29 AM93 °FClear.7 mph59%29.50 "Hg2 mi
9:59 AM93 °FClear.8 mph59%29.50 "Hg2 mi
9:29 AM93 °FClear.8 mph59%29.50 "Hg2 mi
8:59 AM91 °FClear.7 mph63%29.50 "Hg2 mi
8:25 AM91 °FClear.8 mph63%29.50 "Hg2 mi
8:00 AM90 °FClear.7 mph67%29.50 "Hg2 mi
7:30 AM88 °FClear.6 mph66%29.50 "Hg2 mi
7:00 AM86 °FClear.6 mph70%29.47 "Hg2 mi
6:30 AM86 °FClear.5 mph75%29.47 "Hg2 mi
6:00 AM86 °FClear.3 mph75%29.47 "Hg2 mi
5:00 AM86 °FClear.3 mph70%29.45 "Hg2 mi
4:30 AM86 °FClear.5 mph70%29.45 "Hg2 mi
4:00 AM86 °FClear.5 mph70%29.45 "Hg2 mi
3:30 AM86 °FClear.5 mph70%29.45 "Hg2 mi
3:00 AM86 °FClear.6 mph70%29.45 "Hg2 mi
2:30 AM88 °FClear.6 mph70%29.45 "Hg2 mi
12:55 AM88 °FPassing clouds.7 mph70%29.45 "Hg2 mi
12:25 AM90 °FPassing clouds.6 mph63%29.45 "Hg3 mi
11:25 PM
Jul 21
90 °FPassing clouds.5 mph63%29.47 "Hg3 mi
10:25 PM91 °FPassing clouds.7 mph63%29.45 "Hg3 mi
9:55 PM91 °FPassing clouds.8 mph63%29.45 "Hg3 mi
9:25 PM93 °FPassing clouds.6 mph56%29.45 "Hg3 mi
8:55 PM93 °FPassing clouds.5 mph56%29.45 "Hg3 mi
8:25 PM95 °FPassing clouds.6 mph53%29.42 "Hg3 mi
7:55 PM95 °FPassing clouds.8 mph53%29.42 "Hg3 mi
7:25 PM97 °FPassing clouds.5 mph50%29.42 "Hg4 mi
Weather by CustomWeather, © 2014

See weather overviewHow to use our weather pages